Regional Weather Roundup
Issued by NWS Portland, ME

Home | Current Version | Previous Version | Text Only | Print | Product List | Glossary On
Versions: 1 2 3 4 5 6 7 8 9 10 11 12 13 14 15 16 17 18 19 20 21 22 23 24 25 26 27 28 29 30 31 32 33 34 35 36 37 38 39 40 41 42 43 44 45 46 47 48 49 50
000
ASUS41 KGYX 241510
RWRGYX
WEATHER ROUNDUP FOR MAINE AND NEW HAMPSHIRE
NATIONAL WEATHER SERVICE GRAY ME
1100 AM EDT FRI OCT 24 2014

MEZ002-005-006-010-012-015-018-020-021-024-026-027-029-241600-
MAINE

CITY           SKY/WX    TMP DP  RH WIND       PRES   REMARKS
PORTLAND       CLOUDY    51  47  86 N10       29.70S
SANFORD        CLOUDY    48  45  87 N7        29.70F
BAR HARBOR     CLOUDY    48  46  93 N12G20    29.63R
WISCASSET      CLOUDY    48  46  93 VRB3      29.70R FOG
ROCKLAND       CLOUDY    48  45  87 N9        29.65S
FRYEBURG       LGT RAIN  49  45  86 N5        29.71F
LEWISTONAUBURN CLOUDY    48  45  87 N12       29.70S
AUGUSTA        CLOUDY    46  44  93 N16G22    29.70F
WATERVILLE     CLOUDY    46  43  87 N12       29.68S
BANGOR         DRIZZLE   45  43  93 N17       29.69S FOG
GREENVILLE       N/A     41  39  93 N9G21     29.70S
MILLINOCKET    CLOUDY    44  41  89 VRB7G16   29.73S
HOULTON        LGT RAIN  44  42  93 N13       29.70F FOG
PRESQUE ISLE   CLOUDY    41  36  81 N14       29.76S
FRENCHVILLE    LGT RAIN  41  35  79 N13       29.81F
CARIBOU        LGT RAIN  41  37  86 N15       29.77R
$$

NHZ002-005-008-009-011-012-014-241600-
NEW HAMPSHIRE

CITY           SKY/WX    TMP DP  RH WIND       PRES   REMARKS
PORTSMOUTH     CLOUDY    51  47  86 N12       29.70S
ROCHESTER      CLOUDY    51  47  86 N9        29.70F
NASHUA         LGT RAIN  50  45  83 NW14      29.73F
MANCHESTER     CLOUDY    51  43  74 NW10      29.71F
CONCORD        CLOUDY    49  44  83 NW13      29.72F
LACONIA        CLOUDY    48  43  81 W5        29.71S
PLYMOUTH       RAIN      47  46  97 W9G17     29.73F
BERLIN         LGT RAIN  46  44  93 N6        29.75S FOG
WHITEFIELD     CLOUDY    45  42  89 N3        29.77S FOG
JAFFREY        CLOUDY    45  41  86 VRB6      29.75S
LEBANON        CLOUDY    47  40  76 NW9       29.77S
MT WASHINGTON  FOG       34  34 100 N18         N/A  VSB 1/8
$$

VTZ005-007-008-241600-
VERMONT

CITY           SKY/WX    TMP DP  RH WIND       PRES   REMARKS
ST JOHNSBURY     N/A     45  41  86 MISG      29.77F
MONTPELIER     CLOUDY    41  39  93 NW6       29.84S FOG
BURLINGTON     CLOUDY    43  40  89 N7        29.87S FOG
$$

MAZ007-012-024-CTZ003-RIZ002-NYZ038-NYZ072-241600-
SOUTHERN NEW ENGLAND AND NY

CITY           SKY/WX    TMP DP  RH WIND       PRES   REMARKS
BOSTON         CLOUDY    49  48  97 NW13      29.71S
WORCESTER      CLOUDY    46  43  89 NW14      29.73R
NANTUCKET      CLOUDY    53  48  83 NW20G30   29.66R
PROVIDENCE     CLOUDY    53  46  77 NW12G21   29.72S
HARTFORD       PTSUNNY   52  43  71 NW13G18   29.76S
ALBANY         LGT RAIN  46  43  89 NE6       29.86F FOG
NEW YORK CITY  PTSUNNY   56  43  61 NW13      29.81F
$$

ANZ081-ANZ082-ANZ150-NHZ014-MEZ023>029-241600-
COASTAL MARINE OBSERVATIONS

STATION/POSITION TIME  TEMP    WIND        PRES    WAVE
                       AIR SEA DIR/SP/G            HT/PER
                 (UTC) (F)     (DEG/KT/KT) (MB)    (FT/S)
MOUNT DESERT ROC 1500   51                 1001.7S
MATINICUS ROCK   1500          350/ 25/ 28 1002.5S
PORTLAND WX BUOY 1450   49 54  350/ 17/ 21 1004.4F   6/10
WELLS            1400   49 51  350/ 12/ 16 1004.7S
ISLE OF SHOALS   1500   49     340/ 15/ 17 1005.0S
JEFFREYS LEDGE   1421      56                N/A     8/11
CASHES LEDGE BUO 1450   51 55  360/ 21/ 25 1001.8S   8/10
$$

.............KEY..............
   WCI - WIND CHILL
   TC  - TEMPERATURE IN CELSIUS
   VSB - VISIBILITY IN MILES
   HX  - HEAT INDEX
   FAIR- INDICATES FEW OR NO CLOUDS BELOW 12,000 FT, WITH NO
         SIGNIFICANT WEATHER AND/OR OBSTRUCTIONS TO VISIBILITY.





USA.gov is the U.S. government's official web portal to all federal, state and local government web resources and services.